CW8440 Weather Reports


time (UTC)temp
C
wind
direction
speed
KPH
gust
KPH
rain 1hr
cm
rain 24hr
cm
rain mn
cm
humidity
%
barometer
mb
20260902060833 10 128 0.0 0.0 0.00 0.00 0.00 91 1021.7
20260902060330 10 128 0.0 0.0 0.00 0.00 0.00 90 1021.7
20260902055832 11 128 0.0 1.6 0.00 0.00 0.00 90 1021.6
20260902055335 11 128 0.0 1.6 0.00 0.00 0.00 91 1021.5
20260902055330 11 128 0.0 1.6 0.00 0.00 0.00 91 1021.6
20260902054331 11 128 0.0 1.6 0.00 0.00 0.00 90 1021.5
20260902053830 11 129 0.0 0.0 0.00 0.00 0.00 90 1021.4
20260902053328 11 128 0.0 0.0 0.00 0.00 0.00 90 1021.5
20260902052828 11 128 0.0 0.0 0.00 0.00 0.00 90 1021.6
20260902052326 11 128 0.0 0.0 0.00 0.00 0.00 91 1021.5
20260902051829 11 128 0.0 0.0 0.00 0.00 0.00 90 1021.5
20260902051325 11 128 0.0 0.0 0.00 0.00 0.00 91 1021.5
20260902050826 12 128 0.0 0.0 0.00 0.00 0.00 91 1021.5
20260902050552 12 128 0.0 0.0 0.00 0.00 0.00 91 1021.4
20260902050439 12 128 0.0 0.0 0.00 0.00 0.00 91 1021.4
20260902045324 12 128 0.0 3.2 0.00 0.00 0.00 91 1021.4
20260902044823 12 128 0.0 3.2 0.00 0.00 0.00 91 1021.4
20260902044322 11 128 0.0 3.2 0.00 0.00 0.00 91 1021.2
20260902043821 11 128 0.0 3.2 0.00 0.00 0.00 91 1021.1
20260902043322 11 128 0.0 0.0 0.00 0.00 0.00 91 1021.1
20260902042820 11 128 0.0 0.0 0.00 0.00 0.00 91 1021.2
20260902042320 11 128 0.0 0.0 0.00 0.00 0.00 91 1021.1
20260902041821 11 128 0.0 4.8 0.00 0.00 0.00 91 1021.1
20260902041320 11 128 0.0 4.8 0.00 0.00 0.00 90 1021.0
20260902040820 11 128 0.0 4.8 0.00 0.00 0.00 90 1021.0
20260902040322 12 128 1.6 4.8 0.00 0.00 0.00 91 1021.2
20260902040051 12 128 0.0 4.8 0.00 0.00 0.00 91 1021.1
20260902035320 11 136 0.0 3.2 0.00 0.00 0.00 91 1021.0
20260902034820 11 136 0.0 0.0 0.00 0.00 0.00 90 1020.9
20260902034318 11 136 0.0 0.0 0.00 0.00 0.00 90 1020.8
20260902033818 11 136 0.0 0.0 0.00 0.00 0.00 90 1020.7
20260902033318 11 136 0.0 0.0 0.00 0.00 0.00 90 1020.7
20260902033050 11 136 0.0 0.0 0.00 0.00 0.00 90 1020.7
20260902032320 11 136 0.0 0.0 0.00 0.00 0.00 90 1020.6
20260902031819 11 136 0.0 0.0 0.00 0.00 0.00 90 1020.6
20260902031318 11 136 0.0 0.0 0.00 0.00 0.00 90 1020.6
20260902030818 11 136 0.0 0.0 0.00 0.00 0.00 90 1020.5
20260902030318 11 136 0.0 1.6 0.00 0.00 0.00 90 1020.4
20260902025818 11 136 0.0 1.6 0.00 0.00 0.00 89 1020.5
20260902025317 11 136 0.0 1.6 0.00 0.00 0.00 89 1020.6
20260902024817 12 136 0.0 1.6 0.00 0.00 0.00 90 1020.7
20260902024316 12 136 0.0 0.0 0.00 0.00 0.00 90 1020.7
20260902023818 12 136 0.0 3.2 0.00 0.00 0.00 90 1020.6
20260902023317 12 136 0.0 3.2 0.00 0.00 0.00 90 1020.4
20260902023047 12 136 0.0 3.2 0.00 0.00 0.00 89 1020.4
20260902022549 12 136 0.0 3.2 0.00 0.00 0.00 89 1020.3
20260902022047 12 136 0.0 0.0 0.00 0.00 0.00 89 1020.1
20260902021316 12 136 0.0 0.0 0.00 0.00 0.00 89 1020.0
20260902020817 12 136 0.0 0.0 0.00 0.00 0.00 89 1020.0
20260902020316 12 136 0.0 0.0 0.00 0.00 0.00 89 1020.0
20260902015812 12 136 0.0 0.0 0.00 0.00 0.00 89 1020.0
20260902015310 12 136 0.0 0.0 0.00 0.00 0.00 89 1020.1
20260902014811 12 136 0.0 0.0 0.00 0.00 0.00 89 1020.1
20260902014311 12 136 0.0 0.0 0.00 0.00 0.00 89 1020.1
20260902013812 12 136 0.0 0.0 0.00 0.00 0.00 89 1020.2
20260902013311 12 136 0.0 0.0 0.00 0.00 0.00 89 1020.2
20260902012809 12 136 0.0 0.0 0.00 0.00 0.00 89 1020.1
20260902012309 12 136 0.0 0.0 0.00 0.00 0.00 89 1020.1
20260902011809 12 136 0.0 0.0 0.00 0.00 0.00 89 1020.1
20260902011546 12 136 0.0 0.0 0.00 0.00 0.00 88 1020.1
20260902010807 12 136 0.0 0.0 0.00 0.00 0.00 88 1020.1
20260902010307 12 136 0.0 0.0 0.00 0.00 0.00 88 1020.1
20260902005806 12 136 0.0 0.0 0.00 0.00 0.00 88 1020.1
20260902005306 13 136 0.0 0.0 0.00 0.00 0.00 88 1020.0
20260902004805 13 136 0.0 0.0 0.00 0.00 0.00 89 1020.1
20260902004307 13 136 0.0 1.6 0.00 0.00 0.00 88 1020.2
20260902003807 13 136 0.0 1.6 0.00 0.00 0.00 88 1020.2
20260902003307 13 136 0.0 1.6 0.00 0.00 0.00 88 1020.1
20260902002806 13 136 0.0 1.6 0.00 0.00 0.00 88 1020.1
20260902002307 13 136 0.0 1.6 0.00 0.00 0.00 88 1020.0
20260902001804 13 136 0.0 1.6 0.00 0.00 0.00 88 1020.0
20260902001305 13 136 0.0 1.6 0.00 0.00 0.00 87 1020.1
20260902000804 13 136 0.0 1.6 0.00 0.00 0.00 87 1020.1
20260902000305 13 136 0.0 0.0 0.00 0.00 0.00 87 1020.0
20260901235805 13 136 0.0 0.0 0.00 0.00 0.00 86 1020.0
20260901235307 13 136 0.0 0.0 0.00 0.00 0.00 86 1020.1
20260901234803 14 136 0.0 0.0 0.00 0.00 0.00 86 1020.0
20260901234304 14 136 0.0 0.0 0.00 0.00 0.00 86 1020.0
20260901233804 14 136 0.0 0.0 0.00 0.00 0.00 86 1019.9
20260901233538 14 136 0.0 0.0 0.00 0.00 0.00 86 1019.8
20260901232802 14 136 0.0 3.2 0.00 0.00 0.00 85 1019.8
20260901232306 15 136 0.0 3.2 0.00 0.00 0.00 85 1019.7
20260901231802 15 136 0.0 3.2 0.00 0.00 0.00 84 1019.7
20260901231301 15 136 1.6 3.2 0.00 0.00 0.00 84 1019.6
20260901230802 15 136 0.0 3.2 0.00 0.00 0.00 84 1019.6
20260901230300 15 138 0.0 0.0 0.00 0.00 0.00 83 1019.5
20260901225800 15 142 0.0 0.0 0.00 0.00 0.00 83 1019.5
20260901225300 15 144 0.0 0.0 0.00 0.00 0.00 82 1019.4
20260901224800 15 143 0.0 0.0 0.00 0.00 0.00 82 1019.3
20260901224300 16 144 0.0 0.0 0.00 0.00 0.00 82 1019.3
20260901223759 16 149 0.0 3.2 0.00 0.00 0.00 81 1019.4
20260901223302 16 149 0.0 3.2 0.00 0.00 0.00 81 1019.3
20260901222759 16 143 0.0 3.2 0.00 0.00 0.00 80 1019.3
20260901222531 16 146 0.0 4.8 0.00 0.00 0.00 80 1019.3
20260901221801 16 138 0.0 4.8 0.00 0.00 0.00 80 1019.3
20260901221300 16 137 0.0 4.8 0.00 0.00 0.00 80 1019.3
20260901220801 16 137 1.6 4.8 0.00 0.00 0.00 80 1019.4
20260901220300 16 136 1.6 8.0 0.00 0.00 0.00 80 1019.3
20260901215801 16 136 1.6 8.0 0.00 0.00 0.00 80 1019.2
20260901215300 16 136 3.2 9.7 0.00 0.00 0.00 80 1019.1
20260901214801 16 194 4.8 9.7 0.00 0.00 0.00 81 1019.1
20260901214300 16 171 4.8 9.7 0.00 0.00 0.00 80 1019.0
20260901213800 16 190 3.2 9.7 0.00 0.00 0.00 81 1018.9
20260901213302 16 186 3.2 6.4 0.00 0.00 0.00 82 1018.9
20260901212801 16 185 3.2 9.7 0.00 0.00 0.00 82 1019.0
20260901212300 16 186 4.8 9.7 0.00 0.00 0.00 81 1018.8
20260901211800 16 160 4.8 9.7 0.00 0.00 0.00 81 1018.9
20260901211530 17 190 4.8 9.7 0.00 0.00 0.00 81 1018.9
20260901211030 17 200 4.8 9.7 0.00 0.00 0.00 80 1019.0
20260901210259 17 169 4.8 9.7 0.00 0.00 0.00 79 1018.9
20260901205801 17 192 4.8 11.3 0.00 0.00 0.00 78 1019.0
20260901205300 17 188 6.4 12.9 0.00 0.00 0.00 76 1019.0
20260901204800 18 195 4.8 12.9 0.00 0.00 0.00 74 1019.0
20260901204301 18 111 3.2 11.3 0.00 0.00 0.00 75 1018.9
20260901203758 18 180 1.6 8.0 0.00 0.00 0.00 76 1018.9
20260901203255 18 50 1.6 8.0 0.00 0.00 0.00 76 1018.9
20260901202756 18 50 1.6 8.0 0.00 0.00 0.00 76 1018.9
20260901202256 18 75 0.0 6.4 0.00 0.00 0.00 77 1018.7
20260901201755 18 77 1.6 6.4 0.00 0.00 0.00 77 1018.7
20260901201527 18 77 1.6 6.4 0.00 0.00 0.00 76 1018.8
20260901201027 18 179 1.6 6.4 0.00 0.00 0.00 76 1019.0
20260901200257 18 188 3.2 6.4 0.00 0.00 0.00 77 1019.1
20260901195756 18 186 1.6 6.4 0.00 0.00 0.00 77 1019.2
20260901195253 18 59 1.6 6.4 0.00 0.00 0.00 76 1019.2
20260901194753 18 58 3.2 11.3 0.00 0.00 0.00 75 1019.1
20260901194252 18 138 3.2 11.3 0.00 0.00 0.00 74 1019.1
20260901194023 18 162 3.2 11.3 0.00 0.00 0.00 74 1018.9
20260901193252 18 188 3.2 11.3 0.00 0.00 0.00 74 1019.0
20260901192751 18 181 4.8 12.9 0.00 0.00 0.00 72 1019.0
20260901192252 20 181 3.2 12.9 0.00 0.00 0.00 70 1018.9
20260901191752 20 199 1.6 11.3 0.00 0.00 0.00 69 1019.0
20260901191250 20 169 1.6 11.3 0.00 0.00 0.00 68 1018.9
20260901190750 20 188 1.6 6.4 0.00 0.00 0.00 69 1019.0
20260901190250 20 252 1.6 6.4 0.00 0.00 0.00 70 1018.9
20260901185749 20 334 1.6 6.4 0.00 0.00 0.00 70 1018.8
20260901185248 19 173 1.6 6.4 0.00 0.00 0.00 71 1018.8
20260901184746 19 51 1.6 6.4 0.00 0.00 0.00 72 1018.8
20260901184513 19 47 1.6 6.4 0.00 0.00 0.00 74 1018.9
20260901183744 19 48 1.6 6.4 0.00 0.00 0.00 74 1018.9
20260901183242 19 48 1.6 6.4 0.00 0.00 0.00 74 1019.0
20260901182739 19 46 1.6 6.4 0.00 0.00 0.00 75 1018.9
20260901182239 19 69 1.6 8.0 0.00 0.00 0.00 74 1018.8
20260901181739 19 64 1.6 8.0 0.00 0.00 0.00 74 1018.8
20260901181239 20 63 3.2 8.0 0.00 0.00 0.00 72 1018.9
20260901180741 20 63 3.2 8.0 0.00 0.00 0.00 71 1018.9
20260901180241 20 49 1.6 8.0 0.00 0.00 0.00 72 1018.8
20260901175740 20 63 0.0 6.4 0.00 0.00 0.00 73 1018.8
20260901175513 19 62 1.6 6.4 0.00 0.00 0.00 74 1018.9
20260901175011 19 63 1.6 6.4 0.00 0.00 0.00 74 1018.9
20260901174511 19 64 1.6 6.4 0.00 0.00 0.00 73 1019.0
20260901173739 19 47 1.6 6.4 0.00 0.00 0.00 73 1018.9
20260901173240 19 46 1.6 6.4 0.00 0.00 0.00 75 1018.9
20260901172740 19 46 3.2 9.7 0.00 0.00 0.00 75 1018.9
20260901172240 19 61 3.2 9.7 0.00 0.00 0.00 75 1018.9
20260901171740 19 51 3.2 9.7 0.00 0.00 0.00 74 1018.8
20260901171237 19 53 3.2 9.7 0.00 0.00 0.00 75 1018.8
20260901171010 18 55 1.6 6.4 0.00 0.00 0.00 75 1018.8
20260901170237 18 30 0.0 3.2 0.00 0.00 0.00 78 1018.8
20260901165740 18 37 0.0 3.2 0.00 0.00 0.00 77 1018.8
20260901165237 18 38 0.0 3.2 0.00 0.00 0.00 78 1018.8
20260901164738 18 37 1.6 6.4 0.00 0.00 0.00 76 1018.7
20260901164238 18 40 1.6 6.4 0.00 0.00 0.00 76 1018.7
20260901163738 18 39 1.6 6.4 0.00 0.00 0.00 75 1018.8
20260901163238 19 37 1.6 6.4 0.00 0.00 0.00 73 1018.8
20260901162737 19 50 1.6 6.4 0.00 0.00 0.00 69 1018.7
20260901162236 20 17 1.6 6.4 0.00 0.00 0.00 70 1018.8
20260901161736 19 355 3.2 6.4 0.00 0.00 0.00 71 1018.8
20260901161235 19 57 3.2 6.4 0.00 0.00 0.00 71 1018.9
20260901160736 19 332 3.2 6.4 0.00 0.00 0.00 73 1019.0
20260901160506 18 51 3.2 9.7 0.00 0.00 0.00 74 1019.0
20260901155735 18 58 1.6 9.7 0.00 0.00 0.00 77 1018.9
20260901155235 17 355 1.6 9.7 0.00 0.00 0.00 78 1019.0
20260901154736 17 52 1.6 9.7 0.00 0.00 0.00 79 1019.1
20260901154235 17 55 1.6 6.4 0.00 0.00 0.00 79 1019.0
20260901153736 17 155 1.6 8.0 0.00 0.00 0.00 78 1019.0
20260901153234 17 44 0.0 8.0 0.00 0.00 0.00 78 1018.9
20260901152736 18 66 1.6 8.0 0.00 0.00 0.00 76 1018.9
20260901152234 18 53 1.6 8.0 0.00 0.00 0.00 75 1018.9
20260901151733 18 32 1.6 9.7 0.00 0.00 0.00 75 1018.8
20260901151234 18 57 3.2 9.7 0.00 0.00 0.00 74 1018.9
20260901150733 18 50 3.2 9.7 0.00 0.00 0.00 74 1018.9
20260901150233 18 49 3.2 9.7 0.00 0.00 0.00 74 1018.8
20260901145733 18 46 3.2 9.7 0.00 0.00 0.00 73 1018.8
20260901145505 18 55 1.6 4.8 0.00 0.00 0.00 74 1018.8
20260901144735 18 60 0.0 4.8 0.00 0.00 0.00 75 1018.9
20260901144236 18 62 0.0 4.8 0.00 0.00 0.00 74 1018.8
20260901144232 18 60 0.0 4.8 0.00 0.00 0.00 74 1018.8
20260901143232 18 62 1.6 6.4 0.00 0.00 0.00 74 1018.8
20260901142733 18 62 0.0 6.4 0.00 0.00 0.00 73 1018.8
20260901142503 18 70 1.6 6.4 0.00 0.00 0.00 74 1018.9
20260901142000 18 70 1.6 6.4 0.00 0.00 0.00 74 1018.9
20260901141229 18 82 1.6 6.4 0.00 0.00 0.00 75 1018.9
20260901140732 18 175 1.6 4.8 0.00 0.00 0.00 76 1018.9
20260901140228 18 175 1.6 4.8 0.00 0.00 0.00 77 1018.9
20260901135729 17 186 1.6 8.0 0.00 0.00 0.00 77 1018.9
20260901135500 17 187 3.2 8.0 0.00 0.00 0.00 78 1018.8
20260901134959 17 186 3.2 8.0 0.00 0.00 0.00 78 1018.8
20260901134228 17 188 4.8 8.0 0.00 0.00 0.00 80 1018.8
20260901133728 17 175 4.8 8.0 0.00 0.00 0.00 81 1018.8
20260901133227 17 186 4.8 8.0 0.00 0.00 0.00 82 1018.7
20260901132728 17 171 3.2 8.0 0.00 0.00 0.00 82 1018.7
20260901132227 16 171 3.2 8.0 0.00 0.00 0.00 82 1018.7
20260901131727 16 173 3.2 8.0 0.00 0.00 0.00 82 1018.7
20260901131227 16 189 3.2 6.4 0.00 0.00 0.00 83 1018.6
20260901130959 16 174 3.2 8.0 0.00 0.00 0.00 83 1018.7
20260901130224 16 174 3.2 8.0 0.00 0.00 0.00 83 1018.6
20260901125957 16 183 4.8 8.0 0.00 0.00 0.00 83 1018.7
20260901125226 16 184 3.2 8.0 0.00 0.00 0.00 84 1018.8
20260901124724 16 155 1.6 6.4 0.00 0.00 0.00 84 1018.7
20260901124225 16 141 1.6 6.4 0.00 0.00 0.00 84 1018.4
20260901123723 16 161 1.6 6.4 0.00 0.00 0.00 84 1018.4
20260901123223 15 161 3.2 6.4 0.00 0.00 0.00 85 1018.5
20260901122721 15 166 1.6 6.4 0.00 0.00 0.00 86 1018.5
20260901122222 15 165 1.6 6.4 0.00 0.00 0.00 86 1018.5
20260901121722 15 166 1.6 6.4 0.00 0.00 0.00 87 1018.4
20260901121220 15 166 1.6 4.8 0.00 0.00 0.00 88 1018.4
20260901120721 15 119 0.0 4.8 0.00 0.00 0.00 88 1018.3
20260901120219 14 254 0.0 1.6 0.00 0.00 0.00 88 1018.3
20260901115718 14 255 0.0 0.0 0.00 0.00 0.00 88 1018.2
20260901115449 14 255 0.0 0.0 0.00 0.00 0.00 89 1018.2
20260901114719 13 255 0.0 1.6 0.00 0.00 0.00 89 1018.2
20260901114218 13 256 0.0 1.6 0.00 0.00 0.00 89 1018.2
20260901113718 13 256 0.0 1.6 0.00 0.00 0.00 89 1018.2
20260901113219 13 256 0.0 1.6 0.00 0.00 0.00 89 1018.2
20260901112718 13 256 0.0 3.2 0.00 0.00 0.00 90 1018.2
20260901112220 13 256 0.0 3.2 0.00 0.00 0.00 90 1018.1
20260901111719 13 256 0.0 3.2 0.00 0.00 0.00 90 1018.0
20260901111219 12 256 0.0 3.2 0.00 0.00 0.00 90 1018.0
20260901110951 12 256 0.0 0.0 0.00 0.00 0.00 90 1018.0
20260901110220 12 256 0.0 0.0 0.00 0.00 0.00 90 1018.1
20260901105720 12 256 0.0 0.0 0.00 0.00 0.00 90 1018.1
20260901105451 11 256 0.0 0.0 0.00 0.03 0.00 90 1017.9
20260901104718 11 256 0.0 0.0 0.00 0.03 0.00 90 1017.8
20260901104220 11 256 0.0 0.0 0.00 0.03 0.00 90 1017.8
20260901103718 11 256 0.0 0.0 0.00 0.03 0.00 90 1017.8
20260901103219 11 256 0.0 0.0 0.00 0.03 0.00 89 1017.9
20260901102720 11 256 0.0 0.0 0.00 0.03 0.00 89 1017.8
20260901102220 11 256 0.0 0.0 0.00 0.03 0.00 89 1017.7
20260901101720 11 256 0.0 0.0 0.00 0.03 0.00 89 1017.6
20260901101221 11 256 0.0 0.0 0.00 0.03 0.00 89 1017.7
20260901100718 11 256 0.0 0.0 0.00 0.03 0.00 89 1017.7
20260901100219 11 256 0.0 0.0 0.00 0.03 0.00 89 1017.8
20260901095718 11 256 0.0 0.0 0.00 0.03 0.00 89 1017.8
20260901095450 11 256 0.0 0.0 0.00 0.03 0.00 89 1017.7
20260901094718 11 256 0.0 0.0 0.00 0.03 0.00 89 1017.8
20260901094219 10 256 0.0 0.0 0.00 0.03 0.00 89 1017.7
20260901093717 10 256 0.0 0.0 0.00 0.03 0.00 88 1017.7
20260901093217 10 256 0.0 0.0 0.00 0.03 0.00 88 1017.7
20260901092716 10 256 0.0 0.0 0.00 0.03 0.00 89 1017.7
20260901092216 10 256 0.0 0.0 0.00 0.03 0.00 89 1017.8
20260901091712 10 256 0.0 0.0 0.00 0.03 0.00 88 1017.8
20260901091212 10 256 0.0 0.0 0.00 0.03 0.00 88 1017.7
20260901090946 10 256 0.0 0.0 0.00 0.03 0.00 87 1017.7
20260901090211 10 256 0.0 0.0 0.00 0.03 0.00 87 1017.8
20260901085712 11 256 0.0 0.0 0.00 0.03 0.00 87 1017.8
20260901084711 11 256 0.0 0.0 0.00 0.03 0.00 87 1017.7
20260901084210 11 256 0.0 0.0 0.00 0.03 0.00 87 1017.7
20260901083710 11 256 0.0 0.0 0.00 0.03 0.00 87 1017.8
20260901083211 11 256 0.0 0.0 0.00 0.03 0.00 87 1017.7
20260901082710 11 256 0.0 0.0 0.00 0.03 0.00 87 1017.7
20260901082210 11 256 0.0 0.0 0.00 0.03 0.00 87 1017.7
20260901081713 10 256 0.0 0.0 0.00 0.03 0.00 86 1017.6
20260901081709 10 256 0.0 0.0 0.00 0.03 0.00 87 1017.7
20260901080708 10 256 0.0 0.0 0.00 0.03 0.00 86 1017.8
20260901080207 11 256 0.0 0.0 0.00 0.03 0.00 86 1017.9
20260901075708 11 256 0.0 0.0 0.00 0.03 0.00 86 1017.9
20260901075210 11 256 0.0 0.0 0.00 0.03 0.00 86 1017.9
20260901074706 11 256 0.0 0.0 0.00 0.03 0.00 85 1017.8
20260901074206 11 256 0.0 0.0 0.00 0.03 0.00 85 1017.8
20260901073706 11 256 0.0 0.0 0.00 0.03 0.00 85 1017.8
20260901073205 11 256 0.0 0.0 0.00 0.03 0.00 84 1017.7
20260901072700 11 256 0.0 0.0 0.00 0.03 0.00 84 1017.7
20260901072200 11 256 0.0 0.0 0.00 0.03 0.00 84 1017.7
20260901071657 11 256 0.0 0.0 0.00 0.03 0.00 84 1017.8
20260901071433 11 256 0.0 3.2 0.00 0.03 0.00 84 1017.8
20260901070156 11 256 0.0 3.2 0.00 0.03 0.00 83 1017.8
20260901065656 11 256 1.6 3.2 0.00 0.03 0.00 83 1017.8
20260901065427 11 256 0.0 3.2 0.00 0.03 0.00 83 1017.9
20260901064656 11 256 0.0 0.0 0.00 0.03 0.00 82 1018.0
20260901064426 11 256 0.0 0.0 0.00 0.03 0.00 82 1018.0
20260901063652 12 256 0.0 0.0 0.00 0.03 0.00 81 1018.0
20260901063152 12 256 0.0 0.0 0.00 0.03 0.00 81 1017.9
20260901062654 12 256 0.0 4.8 0.00 0.03 0.00 81 1017.9
20260901062153 12 256 0.0 4.8 0.00 0.03 0.00 82 1017.9
20260901061654 11 256 0.0 4.8 0.00 0.03 0.00 82 1017.8
20260901061152 11 256 0.0 4.8 0.00 0.03 0.00 82 1017.6
20260901060925 11 255 0.0 3.2 0.00 0.03 0.00 82 1017.7